Weather History for Estherville, IA

Change the Weather History Date:

Monday, February 18, 2013

  Actual Average Record
Temperature  
Mean Temperature 20 °F 21 °F  
Max Temperature 35 °F 30 °F 65 °F (1981)
Min Temperature 4 °F 13 °F -16 °F (1979)
Degree Days  
Heating Degree Days 45 44  
Month to date heating degree days 756 831  
Since 1 July heating degree days 5150 5502  
Cooling Degree Days 0 0  
Month to date cooling degree days 0 0  
Year to date cooling degree days 0 0  
Moisture  
Dew Point 12 °F    
Average Humidity 76    
Maximum Humidity 85    
Minimum Humidity 67    
Precipitation  
Precipitation T in 0.01 in 0.25 in (1992)
Month to date precipitation 0.43 0.22  
Sea Level Pressure  
Sea Level Pressure 29.79 in    
Wind  
Wind Speed 20 mph (NW)    
Max Wind Speed 36 mph    
Max Gust Speed 44 mph    
Visibility 6 miles    
Events Snow    
T = Trace of Precipitation, MM = Missing Value Source: NWS Daily Summary

Daily Weather History Graph

Daily Weather History Graph

Search for Another Location

Airport:

Trip Planner

Search our weather history database for the weather conditions in past years. The results will help you decide how hot, cold, wet, or windy it might be!

Date:

Astronomy

Feb. 18, 2013 Rise Set
Actual Time 7:12 AM CST 5:54 PM CST
Civil Twilight 6:43 AM CST 6:23 PM CST
Nautical Twilight 6:09 AM CST 6:56 PM CST
Astronomical Twilight 5:36 AM CST 7:29 PM CST
Moon 11:35 AM CST (2/18) 1:57 AM CST (2/18)
Length of Visible Light 11h 40m
Length of Day
10h 41m
First Quarter, 58% of the Moon is Illuminated
Feb 18
First Quarter
Feb 25
Full
Mar 4
Last Quarter
Mar 11
New
Mar 19
First Quarter

Hourly Weather History & Observations

Time (CST) Temp. Windchill Dew Point Humidity Pressure Visibility Wind Dir Wind Speed Gust Speed Precip Events Conditions
12:52 AM 33.1 °F 26.1 °F 28.0 °F 82% 29.59 in 10.0 mi South 8.1 mph - N/A   Clear
1:52 AM 33.1 °F 25.5 °F 28.0 °F 82% 29.58 in 10.0 mi South 9.2 mph - N/A   Clear
2:52 AM 34.0 °F 29.8 °F 28.9 °F 82% 29.56 in 10.0 mi West 4.6 mph - N/A   Clear
4:52 AM 33.1 °F 25.5 °F 28.9 °F 85% 29.57 in 10.0 mi WNW 9.2 mph - N/A   Clear
5:52 AM 32.0 °F 23.6 °F 28.9 °F 88% 29.58 in 10.0 mi NW 10.4 mph - N/A   Clear
6:52 AM 33.1 °F 27.7 °F 28.9 °F 85% 29.60 in 10.0 mi WNW 5.8 mph - N/A   Clear
8:52 AM 35.1 °F 25.9 °F 30.0 °F 82% 29.62 in 7.0 mi NW 13.8 mph - N/A   Clear
9:22 AM 35.6 °F 24.5 °F 30.2 °F 81% 29.59 in 7.0 mi NW 20.7 mph 26.5 mph N/A   Mostly Cloudy
9:50 AM 32.0 °F 18.9 °F 26.6 °F 80% 29.61 in 10.0 mi NNW 24.2 mph 36.8 mph N/A   Overcast
9:52 AM 30.9 °F 17.2 °F 26.1 °F 82% 29.65 in 10.0 mi NNW 25.3 mph 33.4 mph N/A   Overcast
10:52 AM 28.0 °F 12.8 °F 21.0 °F 75% 29.71 in 10.0 mi NW 27.6 mph 32.2 mph N/A   Overcast
11:52 AM 26.1 °F 11.0 °F 19.0 °F 75% 29.72 in 10.0 mi NW 24.2 mph 35.7 mph N/A   Overcast
12:52 PM 25.0 °F 9.5 °F 17.1 °F 72% 29.75 in 10.0 mi NW 24.2 mph 35.7 mph N/A   Overcast
1:52 PM 23.0 °F 5.4 °F 15.1 °F 72% 29.77 in 10.0 mi NW 29.9 mph 36.8 mph N/A   Overcast
2:52 PM 21.0 °F 3.3 °F 12.9 °F 71% 29.79 in 8.0 mi NW 27.6 mph 34.5 mph 0.00 in Snow Light Snow
3:52 PM 21.0 °F 3.6 °F 12.0 °F 68% 29.81 in 5.0 mi NW 26.5 mph 33.4 mph 0.00 in Snow Light Snow
4:52 PM 18.0 °F -1.1 °F 8.1 °F 65% 29.84 in 9.0 mi NW 28.8 mph 36.8 mph 0.00 in   Overcast
5:23 PM 17.6 °F -1.0 °F 8.6 °F 68% 29.79 in 2.5 mi NW 26.5 mph 33.4 mph 0.00 in Snow Light Snow
5:30 PM 15.8 °F -4.7 °F 8.6 °F 73% 29.80 in 5.0 mi NW 31.1 mph 36.8 mph 0.00 in Snow Light Snow
5:49 PM 15.8 °F -5.0 °F 6.8 °F 68% 29.81 in 10.0 mi NW 32.2 mph 41.4 mph 0.00 in   Scattered Clouds
5:52 PM 15.1 °F -4.4 °F 6.1 °F 68% 29.86 in 10.0 mi NW 26.5 mph 40.3 mph 0.00 in   Scattered Clouds
6:11 PM 14.0 °F -6.5 °F 6.8 °F 73% 29.81 in 5.0 mi NW 28.8 mph 36.8 mph 0.00 in Snow Light Snow
7:45 PM 12.2 °F -7.9 °F 6.8 °F 79% 29.84 in 1.8 mi NW 25.3 mph 36.8 mph 0.00 in Snow Light Snow
7:52 PM 12.0 °F -9.8 °F 6.1 °F 77% 29.90 in 2.0 mi NW 31.1 mph 41.4 mph 0.00 in Snow Light Snow
7:57 PM 12.2 °F -8.9 °F 6.8 °F 79% 29.84 in 3.0 mi NW 28.8 mph 41.4 mph 0.00 in Snow Light Snow
8:02 PM 12.2 °F -6.7 °F 6.8 °F 79% 29.84 in 1.8 mi NW 21.9 mph 39.1 mph 0.00 in Snow Light Snow
8:15 PM 12.2 °F -7.1 °F 6.8 °F 79% 29.85 in 2.0 mi NW 23.0 mph 29.9 mph 0.00 in Snow Light Snow
8:23 PM 10.4 °F -9.5 °F 6.8 °F 85% 29.85 in 1.8 mi NW 23.0 mph 29.9 mph 0.00 in Snow Light Snow
8:31 PM 10.4 °F -9.9 °F 6.8 °F 85% 29.85 in 2.5 mi NW 24.2 mph 32.2 mph 0.00 in Snow Light Snow
8:42 PM 10.4 °F -9.5 °F 6.8 °F 85% 29.85 in 1.5 mi NW 23.0 mph 32.2 mph 0.00 in Snow Light Snow
8:52 PM 10.9 °F -9.9 °F 5.0 °F 77% 29.91 in 2.5 mi NW 26.5 mph 35.7 mph 0.00 in Snow Light Snow
9:08 PM 10.4 °F -9.5 °F 5.0 °F 79% 29.86 in 3.0 mi NNW 23.0 mph 33.4 mph 0.00 in Snow Light Snow
9:16 PM 10.4 °F -9.1 °F 3.2 °F 73% 29.86 in 5.0 mi NW 21.9 mph 29.9 mph 0.00 in Snow Light Snow
9:46 PM 8.6 °F -12.3 °F 3.2 °F 79% 29.87 in 1.8 mi NW 24.2 mph 31.1 mph 0.00 in Snow Light Snow
9:52 PM 9.0 °F -11.4 °F 5.0 °F 84% 29.93 in 1.0 mi NW 23.0 mph 31.1 mph 0.00 in Snow Light Snow
10:05 PM 8.6 °F -14.8 °F 1.4 °F 73% 29.87 in 2.0 mi NW 32.2 mph 39.1 mph 0.00 in Snow Light Snow
10:21 PM 6.8 °F -16.9 °F -0.4 °F 72% 29.88 in 9.0 mi NW 31.1 mph 39.1 mph 0.00 in   Overcast
10:33 PM 6.8 °F -15.1 °F 1.4 °F 79% 29.89 in 6.0 mi NW 25.3 mph 34.5 mph 0.00 in   Haze
10:52 PM 6.1 °F -17.2 °F -0.0 °F 76% 29.97 in 6.0 mi NW 28.8 mph 34.5 mph 0.00 in   Haze
11:33 PM 5.0 °F -19.4 °F -0.4 °F 78% 29.91 in 4.0 mi NW 31.1 mph 38.0 mph N/A   Haze
11:50 PM 5.0 °F -18.7 °F -2.2 °F 72% 29.92 in 10.0 mi NW 28.8 mph 40.3 mph N/A   Overcast
11:52 PM 5.0 °F -19.0 °F -2.0 °F 73% 29.99 in 9.0 mi NW 29.9 mph 38.0 mph N/A   Overcast